This is the latest recevied weather packets stored in our database for station/object OK2JF-6. If no packets are shown the sender has not sent any weather packets the latest 10 day(s).
| Time | Temp. | Humidity | Pressure | Rain* | Wind** | Luminosity | Snow |
|---|---|---|---|---|---|---|---|
| 1777498623 | 0.56° C | 59% | 1099.8 hPa | 0 mm | - | 0 W/m² | - |
| 1777498443 | 0.56° C | 56% | 1100.2 hPa | 0 mm | - | 0 W/m² | - |
| 1777498384 | 0.56° C | 56% | 1099.8 hPa | 0 mm | - | 0 W/m² | - |
| 1777498023 | 0.56° C | 57% | 1099.8 hPa | 0 mm | - | 0 W/m² | - |
| 1777497903 | 0.56° C | 57% | 1100.1 hPa | 0 mm | - | 0 W/m² | - |
| 1777497784 | 0.56° C | 59% | 1099.8 hPa | 0 mm | - | 0 W/m² | - |
| 1777497663 | 0.56° C | 60% | 1100 hPa | 0 mm | - | 0 W/m² | - |
| 1777497498 | 0.56° C | 57% | 1099.7 hPa | 0 mm | - | 0 W/m² | - |
| 1777497063 | 1.11° C | 53% | 1100 hPa | 0 mm | - | 0 W/m² | - |
| 1777496957 | 1.11° C | 53% | 1099.7 hPa | 0 mm | - | 0 W/m² | - |
| 1777496763 | 1.11° C | 51% | 1100 hPa | 0 mm | - | 0 W/m² | - |
| 1777495983 | 1.67° C | 48% | 1099.5 hPa | 0 mm | - | 0 W/m² | - |
| 1777495143 | 1.67° C | 48% | 1099.5 hPa | 0 mm | - | 0 W/m² | - |
| 1777495023 | 1.67° C | 49% | 1099.5 hPa | 0 mm | - | 0 W/m² | - |
| 1777494543 | 2.22° C | 47% | 1099.7 hPa | 0 mm | - | 0 W/m² | - |
| 1777494363 | 2.22° C | 48% | 1099.5 hPa | 0 mm | - | 0 W/m² | - |
| 1777494243 | 2.22° C | 47% | 1099.6 hPa | 0 mm | - | 0 W/m² | - |
| 1777493943 | 2.22° C | 47% | 1099.5 hPa | 0 mm | - | 0 W/m² | - |
| 1777493883 | 2.22° C | 46% | 1099.3 hPa | 0 mm | - | 0 W/m² | - |
| 1777493463 | 2.22° C | 46% | 1099.5 hPa | 0 mm | - | 0 W/m² | - |
| 1777492923 | 2.78° C | 46% | 1099.4 hPa | 0 mm | - | 0 W/m² | - |
| 1777492623 | 2.78° C | 45% | 1099.3 hPa | 0 mm | - | 0 W/m² | - |
| 1777492443 | 2.78° C | 45% | 1099.4 hPa | 0 mm | - | 0 W/m² | - |
| 1777492023 | 2.78° C | 45% | 1099.1 hPa | 0 mm | - | 0 W/m² | - |
| 1777491903 | 2.78° C | 45% | 1099.2 hPa | 0 mm | - | 0 W/m² | - |
* Rain latest hour (hover to see other rain measurements)
** Current wind speed in m/s (hover to see current wind gust speed)